{"data":{"norad_id":66554,"intl_designator":"2025-267A","name":"GLOBAL-33","alt_names":[],"object_type":"PAYLOAD","status":"ACTIVE","operator":null,"country":"US","launch_date":"2025-11-20","launch_site_code":"RLLB","launch_vehicle":null,"mission":null,"orbit_class":"UNKNOWN","rcs_meters":null,"size_class":null,"mass_kg":null,"dimensions":null,"purposes":[],"wikipedia_slug":null,"has_3d_model":false,"image_url":null,"decayed_at":null,"tle_current":{"epoch":"2026-09-20T21:54:44.199648Z","epoch_age_seconds":88533,"freshness":"FRESH","line1":"1 66554U 25267A   26263.91301157  .00008729  00000+0  23035-3 0  9995","line2":"2 66554  42.0182 218.5710 0010986 202.6572 157.3784 15.38576261 46781","mean_motion":15.38576261,"eccentricity":0.0010986,"inclination_deg":42.0182,"raan_deg":218.571,"arg_perigee_deg":202.6572,"mean_anomaly_deg":157.3784,"bstar":0.00023035,"rev_number":4678,"period_min":93.593020801196,"perigee_km":442.81685681498,"apogee_km":457.8203394552,"semimajor_km":6828.4555981351,"source":"CELESTRAK","updated_at":"2026-09-21T09:00:16.047994Z"}}}